[[{"header":{"parameterUnit":"m.s-1","parameterCategory":1,"la1":30.2991,"la2":30.254,"lo1":-89.0895,"lo2":-89.0444,"dy":0.0017,"dx":0.0017,"nx":28,"ny":28,"refTime":"2023-09-06T03:00:00:Z","depth":0,"parameterNumber":2,"parameterNumberName":"U-component_of_WINDS"},"data":[0,0,0,0,0,0,0,0,0,0,0,0,0,0,0,0,0,0,0,0,0,0,0,0,0,0,0,0,0,0,0,0,0,0,0,0,0,0,0,0,0,0,0,0,0,0,0,0,0,0,0,0,0,0,0,0,0,0,-1.3967,-1.3967,0,-1.3982,-1.3983,-1.3983,-1.3994,-1.3994,-1.3994,-1.3994,-1.4011,-1.4011,-1.4012,0,0,0,0,0,0,0,0,0,0,0,0,0,-1.3951,-1.3951,-1.3967,-1.3967,-1.3968,-1.3982,-1.3983,-1.3983,-1.3994,-1.3994,-1.3994,-1.3994,-1.4011,-1.4011,-1.4012,0,0,0,0,0,0,0,0,0,0,0,0,0,-1.3961,-1.3951,-1.3967,-1.3975,-1.3976,-1.3982,-1.3983,-1.3983,-1.3994,-1.3994,-1.3994,-1.3994,-1.4011,-1.4011,-1.4012,-1.4012,0,0,-1.4013,-1.4013,0,0,0,0,0,0,0,0,-1.396,-1.3962,-1.3974,-1.3974,-1.3975,-1.3986,-1.3983,-1.3993,-1.3994,-1.3987,-1.3994,-1.3994,-1.4003,-1.4004,-1.4006,-1.4013,-1.4013,-1.4013,-1.4014,-1.4014,-1.4014,0,0,0,0,0,0,0,-1.396,-1.3961,-1.3973,-1.3974,-1.3975,-1.3979,-1.398,-1.3985,-1.3994,-1.3988,-1.3989,-1.399,-1.4003,-1.4006,-1.4007,-1.4014,-1.4013,-1.4014,-1.4014,-1.4014,-1.4023,-1.4023,0,0,0,0,0,0,-1.3958,-1.396,-1.3973,-1.3974,-1.3968,-1.3979,-1.3981,-1.3983,-1.3994,-1.3996,-1.399,-1.3991,-1.4005,-1.4006,-1.4007,-1.401,-1.4014,-1.4014,-1.4015,-1.4023,-1.4023,-1.4023,0,0,0,0,0,0,-1.3957,-1.3959,-1.3972,-1.3967,-1.3969,-1.3979,-1.3981,-1.3983,-1.3986,-1.3996,-1.3997,-1.3991,-1.4005,-1.4007,-1.4011,-1.401,-1.4015,-1.4015,-1.4023,-1.4023,-1.4023,-1.4013,0,0,0,0,0,0,-1.3957,-1.3958,-1.3958,-1.3967,-1.397,-1.3975,-1.3981,-1.3983,-1.3986,-1.3987,-1.3997,-1.3999,-1.4005,-1.401,-1.4012,-1.4011,-1.4015,-1.4023,-1.4023,-1.4023,-1.4013,-1.4012,-1.4012,0,0,0,0,0,-1.3956,-1.3954,-1.3958,-1.3959,-1.3969,-1.3974,-1.3976,-1.3983,-1.3986,-1.3986,-1.3993,-1.3998,-1.401,-1.4011,-1.4012,-1.4012,-1.4023,-1.4023,-1.4023,-1.4014,-1.4013,-1.4012,0,0,0,0,0,0,-1.3944,-1.3955,-1.3959,-1.396,-1.3966,-1.3976,-1.3976,-1.3982,-1.3987,-1.3988,-1.3997,-1.3999,-1.4003,-1.4008,-1.4008,-1.4014,-1.4018,-1.4018,-1.401,-1.4009,-1.4008,-1.4007,-1.4016,0,0,0,0,0,-1.3942,-1.3945,-1.3955,-1.3955,-1.3958,-1.3967,-1.3969,-1.3975,-1.3981,-1.3984,-1.3991,-1.3998,-1.4003,-1.4007,-1.4012,-1.4015,-1.4018,-1.4015,-1.4014,-1.4014,-1.4014,-1.4017,-1.4016,-1.4022,-1.4022,-1.4022,0,0,-1.3937,-1.3943,-1.3944,-1.3953,-1.3958,-1.3962,-1.3969,-1.3972,-1.3975,-1.3985,-1.3989,-1.3995,-1.4003,-1.4007,-1.4009,-1.4011,-1.4013,-1.4014,-1.4013,-1.4013,-1.4017,-1.4016,-1.4016,-1.4022,-1.4022,-1.4022,0,0,-1.3929,-1.3934,-1.3935,-1.3941,-1.3949,-1.3955,-1.3955,-1.3965,-1.3969,-1.3974,-1.3982,-1.3986,-1.3995,-1.4001,-1.4005,-1.4003,-1.4008,-1.4004,-1.4,-1.4003,-1.4002,-1.4002,-1.4002,-1.4002,-1.4004,-1.4004,-1.4004,0,-1.3922,-1.3927,-1.3935,-1.3938,-1.3942,-1.3952,-1.3954,-1.3959,-1.3968,-1.3971,-1.3974,-1.3986,-1.3992,-1.3998,-1.3998,-1.4001,-1.4003,-1.4003,-1.4002,-1.4002,-1.4001,-1.4001,-1.4001,-1.4004,-1.4004,-1.4004,-1.4004,0,-1.3918,-1.3922,-1.3922,-1.3931,-1.3935,-1.3938,-1.3947,-1.3951,-1.3957,-1.3963,-1.3969,-1.3977,-1.3985,-1.3987,-1.3992,-1.3994,-1.3996,-1.4,-1.4004,-1.4,-1.4,-1.4,-1.4003,-1.4003,-1.4003,-1.4004,0,0,-1.3902,-1.3917,-1.3917,-1.3922,-1.3932,-1.3936,-1.394,-1.3948,-1.3951,-1.3958,-1.3962,-1.397,-1.3975,-1.398,-1.3986,-1.3989,-1.3988,-1.3993,-1.3993,-1.3992,-1.3992,-1.3989,-1.3988,-1.3992,-1.3992,-1.3992,-1.3991,0,-1.3896,-1.3903,-1.3911,-1.3915,-1.392,-1.393,-1.3934,-1.3941,-1.3948,-1.3953,-1.3961,-1.3967,-1.3972,-1.3975,-1.3979,-1.3987,-1.3988,-1.3987,-1.3996,-1.3997,-1.3994,-1.3988,-1.3984,-1.3983,-1.3991,-1.3991,-1.3991,0,-1.389,-1.3897,-1.3901,-1.3913,-1.3915,-1.3918,-1.3927,-1.3932,-1.3941,-1.3946,-1.3953,-1.396,-1.3966,-1.397,-1.3979,-1.3979,-1.3983,-1.3988,-1.3989,-1.399,-1.3993,-1.3989,-1.3983,-1.3983,-1.3991,-1.3991,-1.3991,0,-1.3879,-1.3889,-1.3893,-1.3897,-1.3911,-1.3913,-1.3919,-1.3928,-1.3933,-1.3941,-1.3945,-1.3954,-1.3958,-1.3966,-1.3976,-1.3978,-1.3984,-1.3989,-1.3989,-1.3989,-1.399,-1.399,-1.3985,-1.3993,-1.3993,-1.3993,-1.3993,0,-1.3871,-1.3874,-1.3888,-1.3891,-1.3895,-1.3905,-1.3909,-1.3916,-1.3925,-1.393,-1.394,-1.3945,-1.3958,-1.3965,-1.3973,-1.398,-1.3982,-1.3987,-1.3989,-1.3986,-1.3985,-1.3989,-1.3989,-1.3993,-1.3993,-1.3993,-1.3993,0,-1.3859,-1.3868,-1.3874,-1.3887,-1.389,-1.3893,-1.3904,-1.3908,-1.3916,-1.3923,-1.3925,-1.3938,-1.3946,-1.3957,-1.3969,-1.3975,-1.3982,-1.3985,-1.3978,-1.3979,-1.3979,-1.3979,-1.3976,-1.3977,-1.3985,-1.3984,-1.3984,0,-1.3853,-1.3855,-1.3869,-1.3873,-1.3879,-1.3885,-1.389,-1.3901,-1.3907,-1.3919,-1.3921,-1.3931,-1.3939,-1.3953,-1.3964,-1.3974,-1.3977,-1.3976,-1.3979,-1.3976,-1.3978,-1.3978,-1.3979,-1.3975,-1.3975,-1.3974,-1.3974,0,-1.3843,-1.3848,-1.3854,-1.3863,-1.3869,-1.3877,-1.3885,-1.3888,-1.3902,-1.3907,-1.3916,-1.3923,-1.3936,-1.3946,-1.3957,-1.3965,-1.3972,-1.3974,-1.3974,-1.3971,-1.3967,-1.397,-1.3976,-1.3973,-1.3973,-1.3974,-1.3974,-1.3974,-1.3834,-1.3837,-1.3847,-1.3855,-1.3862,-1.387,-1.3875,-1.3884,-1.3891,-1.3903,-1.3909,-1.3919,-1.393,-1.3947,-1.3954,-1.3962,-1.3965,-1.3966,-1.3966,-1.3966,-1.3965,-1.3966,-1.3964,-1.3964,-1.3964,-1.3965,-1.3965,0,-1.3824,-1.3832,-1.3839,-1.385,-1.3857,-1.3863,-1.3873,-1.3879,-1.3886,-1.3896,-1.3905,-1.3916,-1.3926,-1.3939,-1.395,-1.3954,-1.3958,-1.3957,-1.3957,-1.3958,-1.3962,-1.396,-1.3954,-1.3954,-1.3954,-1.3954,-1.3954,-1.3954,-1.382,-1.3826,-1.3833,-1.3843,-1.3851,-1.386,-1.3865,-1.3873,-1.3881,-1.3893,-1.3902,-1.391,-1.3921,-1.3934,-1.3944,-1.3948,-1.3952,-1.3949,-1.3954,-1.3957,-1.3958,-1.3959,-1.3957,-1.395,-1.395,-1.395,-1.395,-1.395]},{"header":{"parameterUnit":"m.s-1","parameterCategory":1,"la1":30.2991,"la2":30.254,"lo1":-89.0895,"lo2":-89.0444,"dy":0.0017,"dx":0.0017,"nx":28,"ny":28,"refTime":"2023-09-06T03:00:00:Z","depth":0,"parameterNumber":3,"parameterNumberName":"V-component_of_WINDS"},"data":[0,0,0,0,0,0,0,0,0,0,0,0,0,0,0,0,0,0,0,0,0,0,0,0,0,0,0,0,0,0,0,0,0,0,0,0,0,0,0,0,0,0,0,0,0,0,0,0,0,0,0,0,0,0,0,0,0,0,3.0705,3.0705,0,3.0676,3.0675,3.0675,3.0692,3.0693,3.0693,3.0694,3.0661,3.0659,3.0658,0,0,0,0,0,0,0,0,0,0,0,0,0,3.0772,3.0771,3.0705,3.0705,3.0704,3.0676,3.0675,3.0675,3.0692,3.0693,3.0694,3.0695,3.0661,3.066,3.0658,0,0,0,0,0,0,0,0,0,0,0,0,0,3.0743,3.077,3.0705,3.0709,3.0709,3.0676,3.0675,3.0675,3.0691,3.0693,3.0694,3.0695,3.0662,3.066,3.0657,3.0617,0,0,3.065,3.0649,0,0,0,0,0,0,0,0,3.0744,3.074,3.0709,3.0709,3.0709,3.0689,3.0687,3.0655,3.0691,3.0698,3.0694,3.0696,3.0669,3.0666,3.0658,3.0616,3.0614,3.0649,3.0648,3.0647,3.0646,0,0,0,0,0,0,0,3.0746,3.0741,3.0693,3.0708,3.0708,3.0711,3.0709,3.0681,3.0677,3.0698,3.0699,3.0695,3.0669,3.066,3.0657,3.0614,3.065,3.0647,3.0646,3.0645,3.0536,3.0535,0,0,0,0,0,0,3.0748,3.0743,3.0694,3.0692,3.073,3.0709,3.0706,3.0694,3.0677,3.0676,3.0694,3.0696,3.0664,3.066,3.0656,3.0607,3.0647,3.0645,3.0643,3.0538,3.0536,3.0534,0,0,0,0,0,0,3.075,3.0744,3.0695,3.0718,3.0712,3.0707,3.0693,3.0693,3.0684,3.0675,3.0674,3.0686,3.0665,3.0659,3.0627,3.0606,3.0643,3.0641,3.0539,3.0537,3.0535,3.051,0,0,0,0,0,0,3.0752,3.0744,3.073,3.0718,3.0711,3.0667,3.0692,3.0691,3.068,3.0682,3.0667,3.0665,3.0665,3.063,3.0624,3.0603,3.0639,3.0541,3.0538,3.0536,3.0512,3.0507,3.0502,0,0,0,0,0,3.0754,3.0723,3.0729,3.0723,3.0693,3.0666,3.0662,3.0664,3.0678,3.0663,3.0657,3.0666,3.061,3.0627,3.062,3.0598,3.0542,3.0539,3.0536,3.0514,3.0508,3.0503,0,0,0,0,0,0,3.0732,3.0722,3.0728,3.0693,3.068,3.0669,3.065,3.0657,3.064,3.0642,3.0644,3.064,3.0606,3.0599,3.0618,3.0558,3.0578,3.0573,3.0564,3.0558,3.0553,3.0555,3.0637,0,0,0,0,0,3.0723,3.0704,3.0695,3.0665,3.0658,3.0655,3.0644,3.0646,3.0633,3.0628,3.062,3.0606,3.0585,3.0571,3.0552,3.0512,3.0508,3.0493,3.0488,3.0484,3.048,3.0458,3.0451,3.0524,3.0524,3.0524,0,0,3.0704,3.0696,3.0684,3.066,3.0651,3.063,3.0651,3.0627,3.0611,3.0624,3.0592,3.0586,3.0571,3.0534,3.0517,3.0527,3.0459,3.048,3.0477,3.0475,3.0454,3.0447,3.044,3.0522,3.0522,3.0523,0,0,3.0659,3.0652,3.0625,3.0616,3.0602,3.06,3.0593,3.0581,3.0578,3.0547,3.0556,3.0536,3.05,3.0489,3.0478,3.0429,3.0436,3.0422,3.0396,3.0374,3.0368,3.0363,3.0344,3.0338,3.0418,3.0418,3.0418,0,3.0637,3.0606,3.061,3.0586,3.0575,3.0587,3.0559,3.0549,3.0529,3.0521,3.0532,3.0488,3.0478,3.0439,3.0427,3.0418,3.041,3.0423,3.0369,3.0364,3.0359,3.0341,3.0334,3.0416,3.0417,3.0417,3.0417,0,3.058,3.0558,3.0538,3.052,3.0506,3.048,3.0479,3.0465,3.0469,3.0465,3.0433,3.0422,3.04,3.0391,3.0394,3.0352,3.0358,3.0369,3.0389,3.035,3.0334,3.0327,3.0414,3.0415,3.0415,3.0416,0,0,3.0519,3.0503,3.0496,3.0487,3.0473,3.0456,3.043,3.041,3.0397,3.0383,3.0361,3.033,3.0341,3.0329,3.033,3.0311,3.0271,3.0325,3.0324,3.0314,3.0223,3.0214,3.0206,3.0277,3.0275,3.0274,3.0224,0,3.0472,3.0429,3.0431,3.039,3.0369,3.038,3.0357,3.0345,3.0341,3.0323,3.0318,3.0296,3.0312,3.0305,3.0286,3.028,3.0253,3.0284,3.0254,3.0253,3.0257,3.0198,3.0188,3.0141,3.0218,3.0217,3.0216,0,3.0412,3.0396,3.0353,3.0341,3.0333,3.0313,3.0294,3.0276,3.0263,3.0261,3.0248,3.0252,3.0225,3.0247,3.0209,3.023,3.0218,3.0213,3.0211,3.0208,3.0232,3.0191,3.0126,3.0119,3.0206,3.0206,3.0207,0,3.0371,3.0339,3.0309,3.0302,3.0287,3.0273,3.0266,3.0254,3.0241,3.0224,3.0216,3.0196,3.0185,3.0169,3.0168,3.0184,3.0129,3.0151,3.0126,3.0126,3.0113,3.0114,3.0044,3.0107,3.0107,3.0107,3.0108,0,3.0318,3.0291,3.0291,3.0272,3.0241,3.0244,3.0213,3.0208,3.0197,3.0176,3.0184,3.0165,3.0165,3.0145,3.0144,3.0112,3.0107,3.0104,3.0104,3.0103,3.0103,3.0094,3.0097,3.0106,3.0106,3.0106,3.0107,0,3.0267,3.0266,3.0234,3.0223,3.022,3.0197,3.0188,3.0169,3.0166,3.014,3.0134,3.0129,3.0106,3.0103,3.0076,3.0075,3.0036,3.004,3.0041,3.0041,3.0017,3.0019,2.9938,2.9927,2.9998,2.9997,2.9997,0,3.0233,3.0212,3.02,3.0187,3.0179,3.0159,3.0146,3.0148,3.0134,3.0117,3.01,3.0078,3.006,3.0022,3.0015,2.9994,2.9997,2.997,2.9993,2.9993,2.9995,2.9996,2.9993,2.9965,2.9964,2.9964,2.9963,0,3.0172,3.0173,3.0155,3.0136,3.0121,3.0106,3.0093,3.0082,3.0081,3.0065,3.0042,3.0028,3.0001,2.9978,2.9957,2.9949,2.9955,2.9956,2.9949,2.9947,2.9948,2.9946,3.0028,2.9958,2.9958,2.9959,2.9959,2.9959,3.0128,3.011,3.0098,3.0077,3.0068,3.0054,3.0036,3.0031,3.0012,2.999,2.9992,2.9966,2.9952,2.9925,2.9915,2.9894,2.9903,2.9893,2.989,2.9888,2.9885,2.9953,2.9891,2.9891,2.9891,2.9891,2.9891,0,3.0067,3.006,3.0041,3.0022,3.0005,3.0014,2.9999,2.9985,2.9962,2.9949,2.9931,2.9904,2.9882,2.9873,2.9851,2.9836,2.9838,2.983,2.9831,2.9828,2.9879,2.9886,2.9828,2.9828,2.9828,2.9828,2.9828,2.9828,3.0034,3.0003,3.0002,2.9966,2.9959,2.9934,2.9925,2.9912,2.9902,2.9871,2.9853,2.9848,2.9836,2.9814,2.9793,2.9791,2.9783,2.9773,2.9772,2.9819,2.9825,2.9831,2.9838,2.9771,2.9771,2.9723,2.9723,2.9722]}]]